Regional Weather Roundup
Issued by NWS

Home | Current Version | Previous Version | Graphics & Text | Print | Product List | Glossary On
Versions: 1 2 3 4 5 6 7 8 9 10 11 12 13 14 15 16 17 18 19 20 21 22 23 24 25 26 27 28 29 30 31 32 33 34 35 36 37 38 39 40 41 42 43 44 45 46 47 48 49 50
000
ASUS43 KLMK 231702
RWRKY
KENTUCKY REGIONAL WEATHER ROUNDUP
NATIONAL WEATHER SERVICE LOUISVILLE KY
1200 PM EST SUN NOV 23 2014

NOTE "FAIR" INDICATES FEW OR NO CLOUDS BELOW 12,000 FEET
WITH NO SIGNIFICANT WEATHER AND/OR OBSTRUCTIONS TO VISIBILITY.

KYZ001>023-026-027-061>063-070>075-231800-
WESTERN AND SOUTH CENTRAL KENTUCKY

CITY           SKY/WX    TMP DP  RH WIND       PRES   REMARKS
PADUCAH        CLOUDY    58  50  75 SE9       29.65F
HENDERSON      CLOUDY    54  46  76 SE8       29.70F
OWENSBORO      CLOUDY    56  52  86 S9        29.73F
HOPKINSVILLE   DRIZZLE   57  57 100 SE16G22   29.70F
BOWLING GREEN  CLOUDY    61  52  72 SE12      29.77F
GLASGOW        NOT AVBL
$$

KYZ024-025-028>034-038-045-046-053-231800-
NORTH CENTRAL KENTUCKY

CITY           SKY/WX    TMP DP  RH WIND       PRES   REMARKS
LOUISVILLE/SDF CLOUDY    58  47  66 SE12      29.79F
LOUISVILLE/LOU LGT RAIN  57  47  69 SE12G21   29.80F
FORT KNOX      LGT RAIN  58  49  71 SE10      29.77F
$$

KYZ035>037-039>044-047>052-055>060-089>105-231800-
NORTHEAST KENTUCKY

CITY           SKY/WX    TMP DP  RH WIND       PRES   REMARKS
LEXINGTON      LGT RAIN  54  44  69 SE12      29.85F
COVINGTON      CLOUDY    58  40  51 SE12      29.85F
FRANKFORT      CLOUDY    57  43  59 SE12      29.83F
$$

KYZ054-064>069-076>088-106>120-231800-
SOUTHEAST KENTUCKY

CITY           SKY/WX    TMP DP  RH WIND       PRES   REMARKS
JACKSON        CLOUDY    57  41  55 VRB3      29.92F
LONDON         LGT RAIN  58  46  64 SE8       29.89F
SOMERSET       NOT AVBL
MIDDLESBORO    LGT RAIN  56  46  69 CALM      29.93F
MONTICELLO     CLOUDY    56  46  69 E6        29.87F
$$




USA.gov is the U.S. government's official web portal to all federal, state and local government web resources and services.